User: anonymous   Login
Location: Remedello Sotto
(45.2500°N, 10.3667°E)
Time: 05:25:59
(UTC+00:00)
Language:

CZ-4 R/B - Orbit

View from above orbital plane
View from above orbital plane
View from above satellite
View from above satellite

Ground track
Ground track

The orbit data is extracted from the following two-line orbital elements,

1 28414U 04035B   24111.87318774  .00006398  00000-0  55026-3 0  9992
2 28414  97.6754 130.4013 0004438 337.8656  22.2374 14.97733267 68607
Epoch (UTC): 20 April 2024 20:57:23
Eccentricity: 0.0004438
inclination: 97.6754°
perigee height: 571 km
apogee height: 577 km
right ascension of ascending node: 130.4013°
argument of perigee: 337.8656°
revolutions per day: 14.97733267
mean anomaly at epoch: 22.2374°
orbit number at epoch: 6860

The dashed part of the orbit path shows where the satellite is in the earth's shadow,  

DLR